Location: ?????
(55.6500°N, 37.2500°E)
Time: 03:16:10
(UTC+00:00)

USA 238 - Pass Details

Date: 19 May 2025
Orbit: 897 x 1314 km, 63.4° (Epoch: 11 June)

Event Time Altitude Azimuth Distance (km) Brightness Sun altitude
Rises 23:06:13 0° 307° (NW) 3,868 6.8 -11.5°
Reaches altitude 10° 23:08:46 10° 308° (NW) 2,968 6.2 -11.4°
Maximum altitude 23:15:56 87° 38° (NE) 1,195 4.0 -10.9°
Drops below altitude 10° 23:23:49 10° 129° (SE) 3,245 6.1 -10.4°
Sets 23:26:43 0° 130° (SE) 4,247 6.7 -10.3°
